Weather History for Meadow Lake, CO

Change the Weather History Date:

Wednesday, March 21, 2012

  Actual Average (KCOS) Record (KCOS)
Temperature  
Mean Temperature 37 °F 40 °F  
Max Temperature 54 °F 53 °F 75 °F (1995)
Min Temperature 20 °F 27 °F 1 °F (1914)
Degree Days  
Heating Degree Days 28 25  
Month to date heating degree days 571  
Since 1 July heating degree days 5134  
Cooling Degree Days 0 0  
Month to date cooling degree days 0  
Year to date cooling degree days 0  
Moisture  
Dew Point 10 °F    
Average Humidity 34    
Maximum Humidity 70    
Minimum Humidity 18    
Precipitation  
Precipitation 0.00 in 0.04 in 0.48 in (1941)
Month to date precipitation 0.65  
Year to date precipitation 1.31  
Snow  
Snow 0.00 in 0.30 in 5.50 in (1944)
Month to date snowfall 5.4  
Since 1 July snowfall 29.4  
Snow Depth -    
Sea Level Pressure  
Sea Level Pressure 29.98 in    
Wind  
Wind Speed 11 mph (NNW)    
Max Wind Speed 25 mph    
Max Gust Speed 39 mph    
Visibility 10 miles    
Events      
T = Trace of Precipitation, MM = Missing Value Source: NWS Daily Summary

Daily Weather History Graph

Daily Weather History Graph

Search for Another Location

Airport:

Trip Planner

Search our weather history database for the weather conditions in past years. The results will help you decide how hot, cold, wet, or windy it might be!

Date:

Astronomy

Mar. 21, 2012 Rise Set
Actual Time 6:59 AM MDT 7:11 PM MDT
Civil Twilight 6:32 AM MDT 7:38 PM MDT
Nautical Twilight 6:01 AM MDT 8:09 PM MDT
Astronomical Twilight 5:29 AM MDT 8:41 PM MDT
Moon 6:11 AM MDT (3/21) 6:40 PM MDT (3/21)
Length of Visible Light 13h 05m
Length of Day
12h 12m
Waning Crescent, 1% of the Moon is Illuminated
Mar 21
Waning Crescent
Mar 22
New
Mar 30
First Quarter
Apr 6
Full
Apr 13
Last Quarter

Hourly Weather History & Observations

Time (MDT) Temp. Windchill Dew Point Humidity Pressure Visibility Wind Dir Wind Speed Gust Speed Precip Events Conditions
12:16 AM 23.0 °F 15.8 °F 12.0 °F 63% 30.02 in 10.0 mi NW 5.8 mph - N/A   Clear
12:36 AM 23.4 °F 17.4 °F 12.7 °F 64% 30.00 in 10.0 mi NW 4.6 mph - N/A   Clear
12:56 AM 22.6 °F 15.3 °F 13.1 °F 67% 30.00 in 10.0 mi NW 5.8 mph - N/A   Clear
1:16 AM 23.0 °F 17.0 °F 13.5 °F 67% 30.00 in 10.0 mi NW 4.6 mph - N/A   Clear
1:36 AM 22.6 °F 16.5 °F 13.3 °F 67% 29.99 in 10.0 mi NW 4.6 mph - N/A   Clear
1:56 AM 21.2 °F 14.9 °F 12.7 °F 70% 29.99 in 10.0 mi WNW 4.6 mph - N/A   Clear
2:16 AM 20.3 °F 11.5 °F 12.0 °F 70% 29.98 in 10.0 mi WNW 6.9 mph - N/A   Clear
2:36 AM 21.2 °F 12.6 °F 11.3 °F 66% 29.98 in 10.0 mi WNW 6.9 mph - N/A   Clear
2:56 AM 21.0 °F 13.4 °F 11.1 °F 66% 29.97 in 10.0 mi WNW 5.8 mph - N/A   Clear
3:16 AM 21.6 °F 12.1 °F 12.0 °F 67% 29.96 in 10.0 mi WNW 8.1 mph - N/A   Clear
3:36 AM 22.1 °F 12.8 °F 13.1 °F 68% 29.95 in 10.0 mi WNW 8.1 mph - N/A   Clear
3:56 AM 23.4 °F 16.2 °F 12.4 °F 63% 29.95 in 10.0 mi NW 5.8 mph - N/A   Clear
4:16 AM 24.6 °F 15.8 °F 9.5 °F 53% 29.95 in 10.0 mi NW 8.1 mph - N/A   Clear
4:36 AM 26.1 °F 17.6 °F 7.9 °F 46% 29.94 in 10.0 mi NW 8.1 mph - N/A   Clear
4:56 AM 26.8 °F 18.5 °F 6.6 °F 42% 29.94 in 10.0 mi NNW 8.1 mph - N/A   Clear
5:16 AM 28.9 °F 20.4 °F 4.1 °F 35% 29.94 in 10.0 mi NNW 9.2 mph - N/A   Clear
5:36 AM 28.0 °F 19.3 °F 4.1 °F 36% 29.95 in 10.0 mi NNW 9.2 mph - N/A   Clear
5:56 AM 26.6 °F 18.2 °F 3.6 °F 37% 29.96 in 10.0 mi NNW 8.1 mph - N/A   Clear
6:16 AM 27.3 °F 20.9 °F 3.0 °F 35% 29.97 in 10.0 mi NNW 5.8 mph - N/A   Clear
6:36 AM 28.9 °F 22.8 °F 2.5 °F 32% 29.97 in 10.0 mi NNW 5.8 mph - N/A   Clear
6:56 AM 30.2 °F 23.4 °F 1.9 °F 30% 29.97 in 10.0 mi NNW 6.9 mph - N/A   Clear
7:16 AM 31.5 °F 23.5 °F 2.1 °F 29% 29.97 in 10.0 mi NNW 9.2 mph - N/A   Clear
7:36 AM 33.3 °F 24.6 °F 2.3 °F 27% 29.97 in 10.0 mi NNW 11.5 mph - N/A   Clear
7:56 AM 35.1 °F 25.9 °F 3.2 °F 26% 29.98 in 10.0 mi NNW 13.8 mph 18.4 mph N/A   Clear
8:16 AM 37.9 °F 29.2 °F 3.9 °F 24% 29.98 in 10.0 mi NNW 15.0 mph 20.7 mph N/A   Clear
8:36 AM 40.5 °F 31.8 °F 5.5 °F 24% 29.98 in 10.0 mi NNW 17.3 mph 24.2 mph N/A   Clear
8:56 AM 42.3 °F 33.8 °F 6.1 °F 23% 29.98 in 10.0 mi North 18.4 mph 28.8 mph N/A   Clear
9:16 AM 43.3 °F 34.5 °F 6.6 °F 22% 29.99 in 10.0 mi North 21.9 mph 29.9 mph N/A   Clear
9:36 AM 44.2 °F 35.7 °F 9.5 °F 24% 29.99 in 10.0 mi North 21.9 mph 31.1 mph N/A   Clear
9:56 AM 45.0 °F 36.0 °F 10.9 °F 25% 29.99 in 10.0 mi North 25.3 mph 39.1 mph N/A   Clear
10:16 AM 45.7 °F 37.1 °F 11.5 °F 25% 30.00 in 10.0 mi North 24.2 mph 35.7 mph N/A   Clear
10:56 AM 46.9 °F - 10.2 °F 23% 30.00 in 10.0 mi North 23.0 mph 34.5 mph N/A   Clear
11:16 AM 48.2 °F - 9.1 °F 21% 30.00 in 10.0 mi North 21.9 mph 31.1 mph N/A   Clear
11:36 AM 48.4 °F - 9.5 °F 21% 30.00 in 10.0 mi North 19.6 mph 36.8 mph N/A   Clear
11:56 AM 48.9 °F - 9.9 °F 21% 30.00 in 10.0 mi North 20.7 mph 32.2 mph N/A   Clear
12:16 PM 50.2 °F - 10.2 °F 20% 30.00 in 10.0 mi North 17.3 mph 31.1 mph N/A   Clear
12:36 PM 50.2 °F - 9.3 °F 19% 30.00 in 10.0 mi NNW 19.6 mph 33.4 mph N/A   Clear
12:56 PM 50.5 °F - 11.1 °F 21% 30.00 in 10.0 mi North 23.0 mph 34.5 mph N/A   Clear
1:15 PM 51.6 °F - 12.0 °F 21% 29.99 in 10.0 mi North 21.9 mph 31.1 mph N/A   Clear
1:35 PM 52.0 °F - 11.1 °F 20% 29.99 in 10.0 mi North 24.2 mph 32.2 mph N/A   Clear
1:55 PM 52.0 °F - 10.2 °F 19% 29.98 in 10.0 mi North 21.9 mph 35.7 mph N/A   Clear
2:15 PM 52.7 °F - 10.6 °F 19% 29.98 in 10.0 mi North 24.2 mph 32.2 mph N/A   Clear
2:35 PM 52.9 °F - 11.3 °F 19% 29.99 in 10.0 mi North 23.0 mph 31.1 mph N/A   Clear
2:55 PM 52.9 °F - 11.1 °F 19% 29.99 in 10.0 mi NNE 20.7 mph 28.8 mph N/A   Clear
3:15 PM 53.6 °F - 10.4 °F 18% 29.98 in 10.0 mi North 17.3 mph 31.1 mph N/A   Clear
3:35 PM 54.0 °F - 10.8 °F 18% 29.98 in 10.0 mi North 21.9 mph 32.2 mph N/A   Clear
3:55 PM 53.8 °F - 10.4 °F 18% 29.98 in 10.0 mi North 18.4 mph 34.5 mph N/A   Clear
4:15 PM 53.6 °F - 12.2 °F 19% 29.98 in 10.0 mi North 21.9 mph 32.2 mph N/A   Clear
4:35 PM 54.1 °F - 13.1 °F 20% 29.97 in 10.0 mi North 17.3 mph 33.4 mph N/A   Clear
4:55 PM 53.8 °F - 14.7 °F 21% 29.97 in 10.0 mi North 20.7 mph 36.8 mph N/A   Clear
5:15 PM 53.8 °F - 14.9 °F 22% 29.97 in 10.0 mi North 21.9 mph 29.9 mph N/A   Clear
5:35 PM 53.6 °F - 15.6 °F 22% 29.96 in 10.0 mi North 15.0 mph 29.9 mph N/A   Clear
5:55 PM 52.7 °F - 15.6 °F 23% 29.98 in 10.0 mi North 19.6 mph 31.1 mph N/A   Clear
6:15 PM 52.0 °F - 15.6 °F 24% 29.98 in 10.0 mi North 13.8 mph 28.8 mph N/A   Clear
6:35 PM 50.7 °F - 15.8 °F 25% 29.98 in 10.0 mi North 11.5 mph 28.8 mph N/A   Clear
6:55 PM 49.1 °F - 14.9 °F 26% 29.99 in 10.0 mi NNE 12.7 mph 28.8 mph N/A   Clear
7:15 PM 45.7 °F 42.0 °F 12.4 °F 26% 29.99 in 10.0 mi NNE 6.9 mph - N/A   Clear
7:35 PM 43.7 °F 38.6 °F 13.6 °F 30% 29.99 in 10.0 mi North 9.2 mph - N/A   Clear
7:55 PM 42.3 °F 37.3 °F 13.8 °F 32% 30.00 in 10.0 mi North 8.1 mph - N/A   Clear
8:15 PM 41.0 °F 35.8 °F 14.0 °F 33% 30.01 in 10.0 mi North 8.1 mph - N/A   Clear
8:35 PM 40.6 °F 34.8 °F 13.6 °F 33% 30.01 in 10.0 mi North 9.2 mph - N/A   Clear
8:55 PM 40.1 °F 34.1 °F 13.6 °F 34% 30.01 in 10.0 mi North 9.2 mph - N/A   Clear
9:15 PM 39.7 °F 33.7 °F 12.2 °F 32% 30.02 in 10.0 mi North 9.2 mph - N/A   Clear
9:35 PM 37.6 °F 31.6 °F 11.7 °F 34% 30.02 in 10.0 mi NNW 8.1 mph - N/A   Clear
9:55 PM 36.3 °F 30.8 °F 12.0 °F 37% 30.02 in 10.0 mi NNW 6.9 mph - N/A   Clear
10:15 PM 37.0 °F 30.4 °F 11.7 °F 35% 30.02 in 10.0 mi NNW 9.2 mph - N/A   Clear
10:35 PM 37.8 °F 31.8 °F 11.1 °F 33% 30.02 in 10.0 mi NNW 8.1 mph - N/A   Clear
10:55 PM 37.4 °F 31.4 °F 10.8 °F 33% 30.02 in 10.0 mi NNW 8.1 mph - N/A   Clear
11:15 PM 37.2 °F 31.2 °F 10.4 °F 33% 30.02 in 10.0 mi NNW 8.1 mph - N/A   Clear
11:35 PM 37.0 °F 31.0 °F 10.4 °F 33% 30.01 in 10.0 mi NNW 8.1 mph - N/A   Clear
11:55 PM 35.6 °F 29.2 °F 10.8 °F 36% 30.00 in 10.0 mi NW 8.1 mph - N/A   Clear